Flag for Australia Weather past 2 weeks in Sydney, New South Wales, Australia

Now
73 °F

Sunny.


Feels Like: 77 °F
Forecast: 56 / 67 °F
Wind: 8 mph from Northwest

Location: Sydney Airport

Current Time: May 28, 2015 at 4:24:20 PM

Latest Report: May 28, 2015 at 3:30 PM


Visibility: 10 mi

Pressure: 30.09 "Hg

Humidity: 41%

Dew point: 48 °F

Location of SydneyLocation

Historic Weather in Sydney — Graph

°F

Sydney temperature yesterday

Maximum temperature yesterday: 70 °F (at 1:00 PM)
Minimum temperature yesterday: 54 °F (at 2:30 AM)
Average temperature yesterday: 61 °F

Past Weeks' High & Low Weather Summary

 TemperatureHumidityPressure
High77 °F (May 20, 2:00 PM)94% (May 17, 8:30 PM)30.57 "Hg (May 17, 8:30 PM)
Low45 °F (May 14, 4:30 AM)29% (May 13, 3:00 PM)29.92 "Hg (May 20, 1:00 AM)
Average59 °F69%30.28 "Hg
* Reported May 13 3:00 PM — May 28 3:00 PM, Sydney, Weather by CustomWeather, © 2015

Note: Actual official high and low records may vary slightly from our data, if they occured in-between our weather recording intervals... More about our weather records

Advertising

Sydney weather history for previous 24 hours

 ConditionsComfort  
Time TempWeatherWind HumidityBarometerVisibility
3:00 PM
Thu, May 28
73 °FSunny.8 mph38%30.12 "Hg10 mi
2:30 PM72 °FSunny.8 mph41%30.09 "Hg10 mi
2:00 PM72 °FSunny.8 mph44%30.12 "Hg10 mi
1:00 PM72 °FSunny.6 mph41%30.12 "Hg10 mi
12:30 PM70 °FSunny.6 mph46%30.15 "Hg10 mi
12:00 PM70 °FSunny.7 mph46%30.15 "Hg10 mi
11:30 AM68 °FSunny.7 mph49%30.15 "Hg10 mi
11:00 AM66 °FSunny.7 mph52%30.18 "Hg10 mi
10:30 AM64 °FSunny.10 mph52%30.21 "Hg10 mi
10:00 AM64 °FSunny.8 mph52%30.21 "Hg10 mi
9:30 AM63 °FSunny.8 mph56%30.21 "Hg10 mi
9:00 AM61 °FSunny.8 mph59%30.21 "Hg10 mi
8:30 AM59 °FSunny.9 mph68%30.21 "Hg10 mi
8:00 AM57 °FSunny.8 mph72%30.21 "Hg10 mi
7:30 AM55 °FSunny.9 mph77%30.21 "Hg10 mi
7:00 AM54 °FSunny.9 mph82%30.21 "Hg10 mi
6:30 AM54 °FSunny.9 mph82%30.21 "Hg10 mi
6:00 AM54 °FSunny.10 mph82%30.18 "Hg10 mi
5:30 AM54 °FClear.9 mph82%30.18 "Hg10 mi
4:00 AM54 °FClear.9 mph82%30.18 "Hg10 mi
3:00 AM54 °FClear.10 mph82%30.18 "Hg10 mi
2:00 AM55 °FClear.10 mph72%30.18 "Hg10 mi
1:00 AM57 °FClear.8 mph67%30.18 "Hg10 mi
12:00 AM57 °FClear.6 mph67%30.18 "Hg10 mi
11:30 PM
Wed, May 27
57 °FClear.9 mph67%30.18 "Hg10 mi
10:00 PM59 °FClear.7 mph63%30.18 "Hg10 mi
9:30 PM61 °FClear.8 mph55%30.18 "Hg10 mi
9:00 PM61 °FClear.5 mph55%30.18 "Hg10 mi
8:00 PM63 °FClear.6 mph56%30.18 "Hg10 mi
7:30 PM63 °FPassing clouds.6 mph56%30.18 "HgN/A
7:00 PM64 °FClear.6 mph49%30.18 "Hg10 mi
6:00 PM66 °FClear.8 mph46%30.15 "Hg10 mi
5:30 PM66 °FClear.8 mph46%30.15 "Hg10 mi
5:00 PM68 °FClear.9 mph43%30.15 "Hg10 mi
4:30 PM70 °FClear.8 mph38%30.15 "Hg10 mi
4:00 PM70 °FClear.7 mph38%30.15 "Hg10 mi
Weather by CustomWeather, © 2015

See weather overviewHow to use our weather pages